Preview of NWS' New Version of Forecast
This preview is not operational and should not be used for support decisions.

Regional Weather Roundup (RWR)

Issued by National Weather Service (NWS)

                            
000
ASUS46 KSEW 190810
RWRWA 

WASHINGTON REGIONAL WEATHER ROUNDUP
NATIONAL WEATHER SERVICE SEATTLE WA
100 AM PDT FRI APR 19 2019

NOTE:"FAIR" INDICATES FEW OR NO CLOUDS BELOW 12,000 FEET WITH NO 
SIGNIFICANT WEATHER AND/OR OBSTRUCTIONS TO VISIBILITY.

WAZ507-509-555>559-190900-
SEATTLE, TACOMA, EVERETT, AND VICINITY
  
CITY           SKY/WX    TMP DP  RH WIND       PRES   REMARKS
EVERETT        CLOUDY    54  51  90 S13       30.03F                  
BOEING FIELD   CLOUDY    57  52  83 SE12      30.04F                  
RENTON         CLOUDY    58  53  84 SE6       30.04F                  
SEATAC AIRPORT CLOUDY    56  52  86 S8        30.04F                  
JBLM-MCCHORD   NOT AVBL                                               
PUYALLUP       CLOUDY    55  55 100 CALM      30.05F                  
BREMERTON      CLOUDY    52  50  93 S3        30.04F                  
JBLM-FT LEWIS  LGT RAIN  55  55 100 SE7       30.04F                  
TACOMA NARROWS CLOUDY    54  52  93 CALM      30.05F                  
$$
 
WAZ001-503-506-510-514-515-190900-
NORTH INTERIOR
  
CITY           SKY/WX    TMP DP  RH WIND       PRES   REMARKS
BELLINGHAM     LGT RAIN  54  52  93 CALM      30.01S                  
FRIDAY HARBOR  FOG       51  49  92 CALM      30.02F VSB 1/4          
EASTSOUND      RAIN      54  54 100 CALM      30.00F                  
PORT ANGELES   CLOUDY    52  50  93 CALM      30.02F                  
EDIZ HOOK      CLOUDY    50  50  99 SW5       30.02F                  
PORT TOWNSEND  CLOUDY    52  52 100 CALM      30.00F                  
NAS WHIDBEY    NOT AVBL                                               
ARLINGTON      CLOUDY    56  54  93 S8        30.03F                  
BURLINGTON     CLOUDY    54  54 100 S6        30.02S                  
$$
 
WAZ020-022-039-040-504-511-512-190900-
SOUTHWEST INTERIOR
  
CITY           SKY/WX    TMP DP  RH WIND       PRES   REMARKS
SHELTON        CLOUDY    53  50  89 SW9       30.03F                  
OLYMPIA        CLOUDY    54  51  90 SW3       30.05F                  
CHEHALIS       CLOUDY    55  54  94 CALM      30.05F                  
KELSO          MOCLDY    55  52  89 CALM      30.07F                  
VANCOUVER      MOCLDY    59  52  77 W6        30.05F                  
SCAPPOOSE, OR  MOCLDY    58  52  80 CALM      30.05S                  
PORTLAND, OR   CLOUDY    59  52  77 W9        30.05F                  
$$
 
WAZ021-516-517-190900-
WASHINGTON COAST
  
CITY           SKY/WX    TMP DP  RH WIND       PRES   REMARKS
FORKS          LGT RAIN  51  51 100 S6        30.03F FOG              
HOQUIAM        CLOUDY    52  52 100 W3        30.06F                  
ASTORIA, OR    CLOUDY    54  50  86 CALM      30.06F                  
$$
 
WAZ019-023-024-040-567>569-190900-
CASCADE MOUNTAINS AND COLUMBIA GORGE
  
CITY           SKY/WX    TMP DP  RH WIND       PRES   REMARKS
STAMPEDE PASS  CLOUDY    48  45  89 CALM      30.07F FOG              
TROUTDALE, OR  MOCLDY    60  51  72 W3        30.05S                  
HOOD RIVER, OR PTSUNNY   57  50  77 MISG      30.02S                  
THE DALLES, OR MOCLDY    66  50  56 N5        29.99S                  
$$

WAZ026-027-041>044-520-521-190900-
EAST SLOPES
  
CITY           SKY/WX    TMP DP  RH WIND       PRES   REMARKS
OMAK           PTCLDY    59  47  64 S9        29.93F                  
WENATCHEE      MOCLDY    53  48  83 SW7       29.97F                  
ELLENSBURG     MOCLDY    58  48  69 NW15      30.00F                  
YAKIMA         CLOUDY    62  49  62 CALM      29.99S                  
SUNNYSIDE ARPT PTSUNNY   58  52  81 N5        29.98F                  
YAKIMA TC      PTSUNNY   60  47  64 E5        29.98S                  
$$

WAZ028-034-035-190900-
COLUMBIA BASIN
  
CITY           SKY/WX    TMP DP  RH WIND       PRES   REMARKS
EPHRATA        CLOUDY    54  49  83 CALM      29.96F                  
MOSES LAKE     CLOUDY    59  50  72 CALM      29.97F                  
PASCO          CLOUDY    67  52  58 SW8       29.97F                  
RICHLAND ARPT  CLOUDY    64  52  64 CALM      29.97F                  
HERMISTON, OR  MOCLDY    62  53  72 S5        29.98S                  
$$

WAZ036>038-190900-
NORTHEAST WASHINGTON
  
CITY           SKY/WX    TMP DP  RH WIND       PRES   REMARKS
SPOKANE GEIGER CLOUDY    56  44  64 S9        30.01F                  
SPOKANE FELTS  CLOUDY    57  46  66 NE3       30.01F                  
FAIRCHILD AFB  CLOUDY    54  50  87 S7        30.00F                  
COEURDALENE,ID NOT AVBL                                               
DEER PARK      CLOUDY    50  44  80 CALM      30.01F                  
$$

WAZ029>033-190900-
SOUTHEAST WASHINGTON
  
CITY           SKY/WX    TMP DP  RH WIND       PRES   REMARKS
PULLMAN        CLOUDY    57  46  66 NE3       30.06F                  
LEWISTON, ID   CLOUDY    56  47  71 SE5       30.03S                  
WALLA WALLA    MOCLDY    63  48  58 E6        30.00S                  
PENDLETON, OR  PTCLDY    54  51  90 E7        30.01S                  
$$